When you browse on this site, cookies collect data to enhance your experience and personalize the content and advertising you see.
Visit our Privacy Policy to learn more. By continuing to use the site, you agree to this use of cookies and data.
  • In Austria
  • List of Countries
  • For 7 days
  • Water Temperature
  • Satellite Maps
  • Weather Map
  • News
  • Weather Widgets
  • user-avatar
    Login

    Hourly Weather Mazari Sharif

    Today, 19 June, Wednesday

    Time Temperature Precipitation Wind Pressure Humidity
    00:00 +23°C° 0 mm 2 mps 651 mmHg 18%
    01:00 +23°C° 0 mm 2 mps 651 mmHg 19%
    02:00 +21°C° 0 mm 2 mps 651 mmHg 20%
    03:00 +21°C° 0 mm 2 mps 651 mmHg 21%
    04:00 +20°C° 0 mm 2 mps 651 mmHg 22%
    05:00 +23°C° 0 mm 2 mps 651 mmHg 20%
    06:00 +25°C° 0 mm 2 mps 652 mmHg 18%
    07:00 +27°C° 0 mm 3 mps 653 mmHg 17%
    08:00 +28°C° 0 mm 3 mps 653 mmHg 16%
    09:00 +29°C° 0 mm 4 mps 653 mmHg 15%
    10:00 +30°C° 0 mm 4 mps 653 mmHg 14%
    11:00 +32°C° 0 mm 5 mps 653 mmHg 13%
    12:00 +32°C° 0 mm 5 mps 653 mmHg 13%
    13:00 +33°C° 0 mm 6 mps 653 mmHg 12%
    14:00 +33°C° 0 mm 5 mps 652 mmHg 12%
    15:00 +33°C° 0 mm 5 mps 652 mmHg 12%
    16:00 +33°C° 0 mm 5 mps 652 mmHg 12%
    17:00 +32°C° 0 mm 5 mps 652 mmHg 13%
    18:00 +29°C° 0 mm 4 mps 652 mmHg 15%
    19:00 +28°C° 0 mm 4 mps 652 mmHg 16%
    20:00 +27°C° 0 mm 4 mps 652 mmHg 18%
    21:00 +25°C° 0 mm 3 mps 652 mmHg 21%
    22:00 +24°C° 0 mm 2 mps 652 mmHg 23%
    23:00 +24°C° 0 mm 2 mps 652 mmHg 25%

    Tomorrow, 20 June, Thursday

    Time Temperature Precipitation Wind Pressure Humidity
    00:00 +22°C° 0 mm 3 mps 651 mmHg 27%
    01:00 +22°C° 0 mm 3 mps 651 mmHg 28%
    02:00 +21°C° 0 mm 3 mps 651 mmHg 30%
    03:00 +21°C° 0 mm 2 mps 651 mmHg 31%
    04:00 +20°C° 0 mm 2 mps 651 mmHg 32%
    05:00 +22°C° 0 mm 3 mps 652 mmHg 29%
    06:00 +24°C° 0 mm 3 mps 652 mmHg 26%
    07:00 +26°C° 0 mm 3 mps 653 mmHg 22%
    08:00 +27°C° 0 mm 3 mps 653 mmHg 20%
    09:00 +28°C° 0 mm 4 mps 654 mmHg 19%
    10:00 +29°C° 0 mm 4 mps 654 mmHg 17%
    11:00 +30°C° 0 mm 4 mps 654 mmHg 16%
    12:00 +32°C° 0 mm 4 mps 654 mmHg 15%
    13:00 +32°C° 0 mm 5 mps 653 mmHg 13%
    14:00 +33°C° 0 mm 5 mps 653 mmHg 13%
    15:00 +33°C° 0 mm 5 mps 653 mmHg 13%
    16:00 +33°C° 0 mm 5 mps 653 mmHg 12%
    17:00 +30°C° 0 mm 4 mps 653 mmHg 12%
    18:00 +29°C° 0 mm 3 mps 653 mmHg 13%
    19:00 +28°C° 0 mm 3 mps 653 mmHg 13%
    20:00 +27°C° 0 mm 3 mps 653 mmHg 14%
    21:00 +26°C° 0 mm 2 mps 653 mmHg 14%
    22:00 +25°C° 0 mm 2 mps 653 mmHg 15%
    23:00 +25°C° 0 mm 2 mps 652 mmHg 16%

    Day after tomorrow, 21 June, Friday

    Time Temperature Precipitation Wind Pressure Humidity
    00:00 +24°C° 0 mm 2 mps 652 mmHg 16%
    01:00 +24°C° 0 mm 2 mps 652 mmHg 17%
    02:00 +23°C° 0 mm 2 mps 652 mmHg 18%
    03:00 +23°C° 0 mm 2 mps 652 mmHg 18%
    04:00 +21°C° 0 mm 2 mps 651 mmHg 19%
    05:00 +24°C° 0 mm 2 mps 652 mmHg 17%
    06:00 +26°C° 0 mm 2 mps 653 mmHg 16%
    07:00 +28°C° 0 mm 2 mps 654 mmHg 14%
    08:00 +29°C° 0 mm 2 mps 654 mmHg 13%
    09:00 +30°C° 0 mm 2 mps 654 mmHg 13%
    10:00 +31°C° 0 mm 2 mps 654 mmHg 12%
    11:00 +31°C° 0 mm 2 mps 654 mmHg 12%
    12:00 +32°C° 0 mm 2 mps 654 mmHg 11%
    13:00 +34°C° 0 mm 2 mps 654 mmHg 11%
    14:00 +34°C° 0 mm 3 mps 654 mmHg 11%
    15:00 +34°C° 0 mm 3 mps 653 mmHg 11%
    16:00 +35°C° 0 mm 4 mps 653 mmHg 10%
    17:00 +33°C° 0 mm 3 mps 653 mmHg 11%
    18:00 +30°C° 0 mm 3 mps 653 mmHg 11%
    19:00 +29°C° 0 mm 2 mps 653 mmHg 12%
    20:00 +28°C° 0 mm 2 mps 653 mmHg 12%
    21:00 +27°C° 0 mm 2 mps 652 mmHg 13%
    22:00 +26°C° 0 mm 2 mps 652 mmHg 13%
    23:00 +25°C° 0 mm 2 mps 652 mmHg 14%

    22 June, Saturday

    Time Temperature Precipitation Wind Pressure Humidity
    00:00 +25°C° 0 mm 2 mps 652 mmHg 14%
    01:00 +24°C° 0 mm 2 mps 651 mmHg 15%
    02:00 +24°C° 0 mm 2 mps 651 mmHg 16%
    03:00 +23°C° 0 mm 2 mps 651 mmHg 16%
    04:00 +23°C° 0 mm 2 mps 651 mmHg 17%
    05:00 +25°C° 0 mm 2 mps 652 mmHg 15%
    06:00 +27°C° 0 mm 3 mps 653 mmHg 13%
    07:00 +29°C° 0 mm 3 mps 654 mmHg 11%
    08:00 +30°C° 0 mm 4 mps 654 mmHg 11%
    09:00 +32°C° 0 mm 5 mps 655 mmHg 11%
    10:00 +33°C° 0 mm 6 mps 655 mmHg 10%
    11:00 +34°C° 0 mm 7 mps 655 mmHg 10%
    12:00 +34°C° 0 mm 7 mps 655 mmHg 10%
    13:00 +35°C° 0 mm 7 mps 655 mmHg 10%
    14:00 +33°C° 0 mm 6 mps 654 mmHg 10%
    15:00 +33°C° 0 mm 6 mps 654 mmHg 10%
    16:00 +33°C° 0 mm 6 mps 654 mmHg 10%
    17:00 +32°C° 0 mm 5 mps 654 mmHg 12%
    18:00 +29°C° 0 mm 4 mps 654 mmHg 13%
    19:00 +28°C° 0 mm 3 mps 653 mmHg 15%
    20:00 +27°C° 0 mm 3 mps 653 mmHg 16%
    21:00 +26°C° 0 mm 3 mps 653 mmHg 17%
    22:00 +25°C° 0 mm 3 mps 653 mmHg 18%
    23:00 +25°C° 0 mm 3 mps 653 mmHg 18%

    23 June, Sunday

    Time Temperature Precipitation Wind Pressure Humidity
    00:00 +24°C° 0 mm 3 mps 653 mmHg 19%
    01:00 +22°C° 0 mm 3 mps 652 mmHg 19%
    02:00 +22°C° 0 mm 3 mps 652 mmHg 20%
    03:00 +21°C° 0 mm 3 mps 652 mmHg 22%
    04:00 +21°C° 0 mm 2 mps 652 mmHg 23%
    05:00 +22°C° 0 mm 3 mps 653 mmHg 22%
    06:00 +25°C° 0 mm 3 mps 654 mmHg 20%
    07:00 +27°C° 0 mm 3 mps 655 mmHg 18%
    08:00 +28°C° 0 mm 4 mps 655 mmHg 17%
    09:00 +29°C° 0 mm 4 mps 655 mmHg 16%
    10:00 +30°C° 0 mm 5 mps 655 mmHg 15%
    11:00 +30°C° 0 mm 5 mps 655 mmHg 14%
    12:00 +32°C° 0 mm 5 mps 655 mmHg 13%
    13:00 +33°C° 0 mm 6 mps 655 mmHg 12%
    14:00 +33°C° 0 mm 5 mps 655 mmHg 12%
    15:00 +33°C° 0 mm 5 mps 654 mmHg 12%
    16:00 +32°C° 0 mm 5 mps 654 mmHg 12%
    17:00 +30°C° 0 mm 4 mps 654 mmHg 12%
    18:00 +29°C° 0 mm 4 mps 653 mmHg 13%
    19:00 +27°C° 0 mm 3 mps 653 mmHg 14%
    20:00 +26°C° 0 mm 3 mps 653 mmHg 14%
    21:00 +26°C° 0 mm 3 mps 653 mmHg 15%
    22:00 +25°C° 0 mm 2 mps 653 mmHg 16%
    23:00 +24°C° 0 mm 2 mps 653 mmHg 16%

    24 June, Monday

    Time Temperature Precipitation Wind Pressure Humidity
    00:00 +24°C° 0 mm 2 mps 652 mmHg 17%
    01:00 +23°C° 0 mm 2 mps 652 mmHg 17%
    02:00 +23°C° 0 mm 2 mps 652 mmHg 18%
    03:00 +23°C° 0 mm 2 mps 652 mmHg 18%
    04:00 +21°C° 0 mm 2 mps 652 mmHg 19%
    05:00 +24°C° 0 mm 2 mps 653 mmHg 17%
    06:00 +25°C° 0 mm 2 mps 654 mmHg 16%
    07:00 +27°C° 0 mm 2 mps 654 mmHg 15%
    08:00 +28°C° 0 mm 3 mps 655 mmHg 15%
    09:00 +29°C° 0 mm 3 mps 655 mmHg 15%
    10:00 +30°C° 0 mm 4 mps 655 mmHg 15%
    11:00 +32°C° 0 mm 4 mps 655 mmHg 15%
    12:00 +32°C° 0 mm 4 mps 655 mmHg 14%
    13:00 +33°C° 0 mm 5 mps 654 mmHg 14%
    14:00 +33°C° 0 mm 5 mps 654 mmHg 13%
    15:00 +33°C° 0 mm 4 mps 654 mmHg 13%
    16:00 +33°C° 0 mm 4 mps 653 mmHg 13%
    17:00 +32°C° 0 mm 4 mps 653 mmHg 14%
    18:00 +29°C° 0 mm 3 mps 653 mmHg 14%
    19:00 +28°C° 0 mm 2 mps 653 mmHg 15%
    20:00 +27°C° 0 mm 2 mps 653 mmHg 16%
    21:00 +26°C° 0 mm 2 mps 653 mmHg 17%
    22:00 +25°C° 0 mm 2 mps 653 mmHg 17%
    23:00 +25°C° 0 mm 2 mps 652 mmHg 18%
    Show more